When you browse on this site, cookies collect data to enhance your experience and personalize the content and advertising you see.
Visit our Privacy Policy to learn more. By continuing to use the site, you agree to this use of cookies and data.
  • In Österreich
  • Länderverzeichnis
  • Für 7 Tage
  • Wassertemperatur
  • Satellitenkarten
  • Wetterkarte
  • News
  • Widgets
  • user-avatar
    Anmelden

    Stündliche Wetter Corozal

    Heute, 22 April, Montag

    Zeit Temperatur Niederschläge Wind Luftdruck Luftfeuchtigkeit
    00:00 +24°C° 0 mm 2 m/S 762 mmHg 85%
    01:00 +24°C° 0 mm 1 m/S 762 mmHg 86%
    02:00 +24°C° 0 mm 1 m/S 761 mmHg 88%
    03:00 +23°C° 0 mm 1 m/S 761 mmHg 89%
    04:00 +23°C° 0 mm 1 m/S 761 mmHg 89%
    05:00 +23°C° 0 mm 1 m/S 761 mmHg 89%
    06:00 +23°C° 0 mm 1 m/S 761 mmHg 89%
    07:00 +26°C° 0 mm 2 m/S 761 mmHg 81%
    08:00 +28°C° 0 mm 2 m/S 762 mmHg 73%
    09:00 +30°C° 0 mm 3 m/S 762 mmHg 65%
    10:00 +31°C° 0.1 mm 3 m/S 762 mmHg 62%
    11:00 +33°C° 0.1 mm 3 m/S 761 mmHg 58%
    12:00 +34°C° 0.1 mm 4 m/S 761 mmHg 55%
    13:00 +34°C° 0 mm 4 m/S 760 mmHg 54%
    14:00 +34°C° 0 mm 4 m/S 760 mmHg 54%
    15:00 +34°C° 0 mm 4 m/S 759 mmHg 54%
    16:00 +31°C° 0 mm 3 m/S 759 mmHg 60%
    17:00 +30°C° 0 mm 3 m/S 759 mmHg 67%
    18:00 +28°C° 0 mm 3 m/S 759 mmHg 73%
    19:00 +28°C° 0 mm 2 m/S 759 mmHg 77%
    20:00 +27°C° 0 mm 2 m/S 760 mmHg 81%
    21:00 +26°C° 0 mm 2 m/S 760 mmHg 86%
    22:00 +26°C° 0 mm 2 m/S 760 mmHg 87%
    23:00 +26°C° 0 mm 2 m/S 760 mmHg 88%

    Morgen, 23 April, Dienstag

    Zeit Temperatur Niederschläge Wind Luftdruck Luftfeuchtigkeit
    00:00 +26°C° 0 mm 2 m/S 760 mmHg 89%
    01:00 +25°C° 0 mm 1 m/S 760 mmHg 90%
    02:00 +25°C° 0 mm 1 m/S 759 mmHg 90%
    03:00 +25°C° 0 mm 1 m/S 759 mmHg 91%
    04:00 +25°C° 0 mm 1 m/S 759 mmHg 91%
    05:00 +25°C° 0 mm 1 m/S 759 mmHg 91%
    06:00 +25°C° 0 mm 1 m/S 759 mmHg 91%
    07:00 +27°C° 0 mm 2 m/S 760 mmHg 80%
    08:00 +29°C° 0 mm 2 m/S 760 mmHg 70%
    09:00 +33°C° 0 mm 3 m/S 761 mmHg 60%
    10:00 +33°C° 0 mm 3 m/S 760 mmHg 56%
    11:00 +34°C° 0 mm 4 m/S 760 mmHg 52%
    12:00 +35°C° 0 mm 4 m/S 760 mmHg 48%
    13:00 +35°C° 0 mm 4 m/S 759 mmHg 49%
    14:00 +34°C° 0 mm 4 m/S 758 mmHg 51%
    15:00 +34°C° 0 mm 4 m/S 758 mmHg 52%
    16:00 +33°C° 0 mm 4 m/S 758 mmHg 58%
    17:00 +30°C° 0 mm 3 m/S 758 mmHg 65%
    18:00 +29°C° 0 mm 3 m/S 758 mmHg 71%
    19:00 +28°C° 0 mm 2 m/S 758 mmHg 75%
    20:00 +27°C° 0 mm 2 m/S 759 mmHg 79%
    21:00 +26°C° 0 mm 2 m/S 759 mmHg 83%
    22:00 +26°C° 0 mm 2 m/S 759 mmHg 85%
    23:00 +26°C° 0 mm 2 m/S 759 mmHg 86%

    übermorgen, 24 April, Mittwoch

    Zeit Temperatur Niederschläge Wind Luftdruck Luftfeuchtigkeit
    00:00 +26°C° 0 mm 2 m/S 759 mmHg 88%
    01:00 +25°C° 0 mm 2 m/S 759 mmHg 89%
    02:00 +25°C° 0 mm 2 m/S 758 mmHg 90%
    03:00 +25°C° 0 mm 2 m/S 758 mmHg 91%
    04:00 +25°C° 0 mm 2 m/S 758 mmHg 91%
    05:00 +25°C° 0 mm 2 m/S 758 mmHg 90%
    06:00 +25°C° 0 mm 2 m/S 758 mmHg 90%
    07:00 +28°C° 0.1 mm 2 m/S 759 mmHg 80%
    08:00 +30°C° 0.1 mm 3 m/S 759 mmHg 71%
    09:00 +33°C° 0.1 mm 3 m/S 760 mmHg 61%
    10:00 +34°C° 0.1 mm 3 m/S 759 mmHg 57%
    11:00 +34°C° 0.1 mm 4 m/S 759 mmHg 53%
    12:00 +35°C° 0.1 mm 4 m/S 758 mmHg 49%
    13:00 +35°C° 0 mm 4 m/S 758 mmHg 50%
    14:00 +35°C° 0 mm 4 m/S 757 mmHg 51%
    15:00 +35°C° 0 mm 4 m/S 756 mmHg 52%
    16:00 +33°C° 0 mm 4 m/S 757 mmHg 59%
    17:00 +31°C° 0 mm 3 m/S 757 mmHg 66%
    18:00 +29°C° 0 mm 3 m/S 757 mmHg 73%
    19:00 +28°C° 0 mm 3 m/S 757 mmHg 78%
    20:00 +27°C° 0 mm 2 m/S 758 mmHg 83%
    21:00 +27°C° 0 mm 2 m/S 758 mmHg 87%
    22:00 +26°C° 0 mm 2 m/S 758 mmHg 88%
    23:00 +26°C° 0 mm 2 m/S 758 mmHg 89%

    25 April, Donnerstag

    Zeit Temperatur Niederschläge Wind Luftdruck Luftfeuchtigkeit
    00:00 +26°C° 0 mm 2 m/S 757 mmHg 91%
    01:00 +27°C° 0 mm 2 m/S 757 mmHg 88%
    02:00 +27°C° 0 mm 2 m/S 757 mmHg 86%
    03:00 +27°C° 0 mm 3 m/S 756 mmHg 84%
    04:00 +27°C° 0 mm 3 m/S 757 mmHg 85%
    05:00 +27°C° 0 mm 2 m/S 757 mmHg 86%
    06:00 +27°C° 0 mm 2 m/S 757 mmHg 86%
    07:00 +28°C° 0 mm 3 m/S 758 mmHg 81%
    08:00 +29°C° 0 mm 3 m/S 758 mmHg 75%
    09:00 +32°C° 0 mm 4 m/S 758 mmHg 69%
    10:00 +33°C° 0 mm 4 m/S 758 mmHg 66%
    11:00 +33°C° 0 mm 4 m/S 758 mmHg 62%
    12:00 +34°C° 0 mm 4 m/S 757 mmHg 59%
    13:00 +35°C° 0 mm 4 m/S 757 mmHg 57%
    14:00 +35°C° 0 mm 3 m/S 756 mmHg 55%
    15:00 +36°C° 0 mm 3 m/S 756 mmHg 52%
    16:00 +34°C° 0 mm 3 m/S 756 mmHg 59%
    17:00 +33°C° 0 mm 3 m/S 756 mmHg 65%
    18:00 +30°C° 0 mm 2 m/S 756 mmHg 71%
    19:00 +29°C° 0 mm 2 m/S 757 mmHg 75%
    20:00 +28°C° 0 mm 2 m/S 758 mmHg 80%
    21:00 +27°C° 0 mm 2 m/S 758 mmHg 85%
    22:00 +27°C° 0 mm 2 m/S 758 mmHg 87%
    23:00 +27°C° 0 mm 2 m/S 758 mmHg 89%

    26 April, Freitag

    Zeit Temperatur Niederschläge Wind Luftdruck Luftfeuchtigkeit
    00:00 +27°C° 0 mm 2 m/S 758 mmHg 91%
    01:00 +27°C° 0 mm 2 m/S 758 mmHg 92%
    02:00 +27°C° 0 mm 1 m/S 757 mmHg 92%
    03:00 +27°C° 0 mm 1 m/S 757 mmHg 92%
    04:00 +27°C° 0 mm 1 m/S 758 mmHg 92%
    05:00 +27°C° 0 mm 1 m/S 758 mmHg 92%
    06:00 +27°C° 0 mm 1 m/S 758 mmHg 92%
    07:00 +29°C° 0 mm 1 m/S 759 mmHg 81%
    08:00 +31°C° 0 mm 1 m/S 759 mmHg 71%
    09:00 +34°C° 0 mm 2 m/S 759 mmHg 61%
    10:00 +34°C° 0 mm 1 m/S 759 mmHg 56%
    11:00 +36°C° 0 mm 1 m/S 758 mmHg 52%
    12:00 +35°C° 0 mm 0 m/S 758 mmHg 48%
    13:00 +35°C° 0 mm 0 m/S 757 mmHg 47%
    14:00 +37°C° 0 mm 1 m/S 757 mmHg 47%
    15:00 +37°C° 0 mm 1 m/S 756 mmHg 46%
    16:00 +35°C° 0 mm 1 m/S 756 mmHg 50%
    17:00 +34°C° 0 mm 1 m/S 757 mmHg 55%
    18:00 +33°C° 0 mm 1 m/S 757 mmHg 59%
    19:00 +32°C° 0 mm 1 m/S 757 mmHg 65%
    20:00 +30°C° 0 mm 1 m/S 758 mmHg 71%
    21:00 +29°C° 0 mm 1 m/S 758 mmHg 77%
    22:00 +29°C° 0.1 mm 1 m/S 758 mmHg 79%
    23:00 +28°C° 0.1 mm 2 m/S 758 mmHg 82%

    27 April, Samstag

    Zeit Temperatur Niederschläge Wind Luftdruck Luftfeuchtigkeit
    00:00 +28°C° 0.1 mm 2 m/S 758 mmHg 84%
    01:00 +27°C° 0 mm 2 m/S 758 mmHg 85%
    02:00 +27°C° 0 mm 2 m/S 758 mmHg 86%
    03:00 +26°C° 0 mm 3 m/S 758 mmHg 87%
    04:00 +26°C° 0 mm 3 m/S 758 mmHg 85%
    05:00 +26°C° 0 mm 3 m/S 758 mmHg 83%
    06:00 +26°C° 0 mm 2 m/S 759 mmHg 81%
    07:00 +27°C° 0 mm 2 m/S 759 mmHg 72%
    08:00 +29°C° 0 mm 2 m/S 759 mmHg 63%
    09:00 +30°C° 0 mm 2 m/S 760 mmHg 55%
    10:00 +32°C° 0 mm 2 m/S 759 mmHg 46%
    11:00 +35°C° 0 mm 2 m/S 759 mmHg 37%
    12:00 +36°C° 0 mm 2 m/S 758 mmHg 28%
    13:00 +37°C° 0 mm 2 m/S 757 mmHg 26%
    14:00 +38°C° 0 mm 2 m/S 757 mmHg 24%
    15:00 +38°C° 0 mm 2 m/S 756 mmHg 22%
    16:00 +37°C° 0 mm 2 m/S 756 mmHg 28%
    17:00 +34°C° 0 mm 1 m/S 756 mmHg 34%
    18:00 +32°C° 0 mm 1 m/S 756 mmHg 40%
    19:00 +31°C° 0 mm 1 m/S 757 mmHg 48%
    20:00 +30°C° 0 mm 1 m/S 758 mmHg 56%
    21:00 +28°C° 0 mm 1 m/S 758 mmHg 64%
    22:00 +28°C° 0.1 mm 1 m/S 759 mmHg 67%
    23:00 +27°C° 0.1 mm 1 m/S 759 mmHg 70%
    Mehr zeigen